CZ-6A DEB

Satellite information

Favourite Embed

Satellite Type and Status

DEBRISIN ORBIT

Key statistics

Satellite CZ-6A DEB at a glance.

Uptime

1077

Days in orbit

Revolutions

≈ 14.7

Per day

Orbit

SSO

Sun Synchronous Orbit

Inclination

98.6

Latest

Satellite identification and parameters

Extended collection of information and parameters for CZ-6A DEB.

Object identification

Identified? True

Debris? True

Object name: CZ-6A DEB

International designator: 2022-151JV

Object number (NORAD): 54517

Object ID (CCSDS): 54517

Country: PEOPLES REPUBLIC OF CHINA (PRC)

Current information (Y/N): Y

RCS size: SMALL

Orbital parameters

Period: 98.088 minutes

Inclination: 98.645 deg

SMA: 7045.356 km

Apoapsis: 721.608 km

Periapsis: 612.834 km

RAAN: 347.2974 deg

Eccentricy: 0.0077196

Argument of periapsis: 293.8017 deg

Mean anomaly: 65.5106 deg

Mean motion: 14.6807533 rev/day

Mean motion (dot): 0.00018945 rev/day2

B* drag term: 0.0031565859 1/REarth

Two-line elements (TLE)

Creation date: Oct. 23, 2025, 2:46 a.m.

Reference frame: TEME

Reference center: EARTH

Epoch: Oct. 22, 2025, 8:43 p.m. UTC

TLE line 0: 0 CZ-6A DEB

TLE line 1: 1 54517U 22151JV 25295.86348172 .00018945 00000-0 31566-2 0 9995

TLE line 2: 2 54517 98.6450 347.2974 0077196 293.8017 65.5106 14.68075330155553

Live tracking on map

Real-time ground track for satellite CZ-6A DEB.

In-orbit conjunctions

A list of the most updated potential collisions computed for object CZ-6A DEB.

Target Orbit TCA Probability of collision Miss distance Type
TSX-5 LEO 2025-09-06 22:55:49 0.00122738 227.0 (m) PAYLOAD
ATLAS 28E R/B LEO 2025-06-09 06:30:49 0.0001468164 342.0 (m) ROCKET BODY
RUBIN 8/PSLV SSO 2025-03-08 18:41:14 0.001326939 413.0 (m) PAYLOAD
IRIDIUM 33 DEB LEO 2024-12-24 12:24:05 0.0002551066 83.0 (m) DEBRIS
FENGYUN 1C DEB SSO 2024-11-12 08:22:48 0.0003618896 348.0 (m) DEBRIS

Associated space launch

Chinese satellite reported for atmospheric/ocean/environmental/spatial parameter research purposes, details TBD.

CZ-6A DEB was lifted into orbit during the mission ‘Long March 6A | Yunhai 3’, on board a Long March 6A space rocket.

The launch took place on Nov. 11, 2022, 10:52 p.m. from Launch Complex 9A.

For more information about the launch, click the button.

Launch to space Long March 6A | Yunhai 3
Long March 6A | Yunhai 3

Agency: N/A

Status: Launch Successful

Launch date: Nov. 11, 2022, 10:52 p.m. UTC

Rocket: Long March 6A

Launch pad: Launch Complex 9A

Location: Taiyuan Satellite Launch Center, People's Republic of China

...

Latest news about this satellite

There are no fresh news available about this satellite. Check back as we update our databases every day.


Newsletter sign-up

Weekly statistics, charts and insights to help you stay on top of the space industry.